Location: Alto Pass Reservoir
(37.5801°N, 89.3084°W)
Time: 15:00:13
(UTC+00:00)

CZ-2D R/B - Pass Details

Date: 08 December 2021
Orbit: 520 x 535 km, 97.4° (Epoch: 19 January)

Event Time Altitude Azimuth Distance (km) Brightness Sun altitude
Rises 12:27:35 0° 13° (NNE) 2,652 6.7 -6.6°
Reaches altitude 10° 12:29:42 10° 15° (NNE) 1,759 5.8 -6.2°
Maximum altitude 12:33:29 75° 101° (E) 542 3.5 -5.5°
Drops below altitude 10° 12:37:15 10° 187° (S) 1,748 6.1 -4.8°
Sets 12:39:21 0° 189° (S) 2,633 7.0 -4.4°
